Location: *
(44.1392°N, 4.8079°E)
Time: 08:28:46
(UTC+00:00)

CZ-2D R/B - Pass Details

Date: 21 June 2021
Orbit: 791 x 845 km, 98.7° (Epoch: 01 August)

Event Time Altitude Azimuth Distance (km) Brightness Sun altitude
Rises 01:11:41 0° 15° (NNE) 3,302 6.9 -19.4°
Reaches altitude 10° 01:14:02 10° 17° (NNE) 2,367 5.8 -19.2°
Maximum altitude 01:19:15 74° 103° (ESE) 828 2.1 -18.9°
Enters shadow 01:21:42 32° 182° (S) 1,329 2.7 -18.7°
